Mojave, CA

11:02 AM PST on December 06, 2016 (GMT -0800)
Mojave

Weather History for KMHV - May, 2013

Change the Weather History Date:

Thursday, May 16, 2013

  Actual Average Record
Temperature  
Mean Temperature 68 °F -  
Max Temperature 77 °F 81 °F 95 °F (2006)
Min Temperature 59 °F 54 °F 42 °F (1977)
Cooling Degree Days 3    
Growing Degree Days 18 (Base 50)    
Moisture  
Dew Point 36 °F    
Average Humidity 31    
Maximum Humidity 51    
Minimum Humidity 19    
Precipitation  
Precipitation 0.00 in - - ()
Sea Level Pressure  
Sea Level Pressure 29.89 in    
Wind  
Wind Speed 18 mph (West)    
Max Wind Speed 36 mph    
Max Gust Speed 45 mph    
Visibility 10 miles    
Events      
Averages and records for this station are not official NWS values.
T = Trace of Precipitation, MM = Missing Value Source: NWS Daily Summary

Daily Weather History Graph

Daily Weather History Graph

Search for Another Location

Airport or City:

Trip Planner

Search our weather history database for the weather conditions in past years. The results will help you decide how hot, cold, wet, or windy it might be!

Date:

Astronomy

May. 16, 2013 Rise Set
Actual Time 5:47 AM PDT 7:50 PM PDT
Civil Twilight 5:19 AM PDT 8:18 PM PDT
Nautical Twilight 4:45 AM PDT 8:53 PM PDT
Astronomical Twilight 4:08 AM PDT 9:30 PM PDT
Moon 11:21 AM PDT (5/16) 12:17 AM PDT (5/16)
Length of Visible Light 14h 59m
Length of Day
14h 02m
Waxing Crescent, 36% of the Moon is Illuminated
May 16
Waxing Crescent
May 17
First Quarter
May 24
Full
May 31
Last Quarter
Jun 8
New

Hourly Weather History & Observations

Time (PDT) Temp. Dew Point Humidity Pressure Visibility Wind Dir Wind Speed Gust Speed Precip Events Conditions
12:15 AM 71.6 °F 32.0 °F 23% 29.92 in 10.0 mi East 3.5 mph - N/A   Clear
12:35 AM 69.8 °F 35.6 °F 28% 29.92 in 10.0 mi North 6.9 mph 18.4 mph N/A   Clear
12:55 AM 68.0 °F 35.6 °F 30% 29.92 in 10.0 mi SE 5.8 mph - N/A   Clear
1:15 AM 68.0 °F 37.4 °F 33% 29.92 in 10.0 mi Calm Calm - N/A   Clear
1:35 AM 68.0 °F 37.4 °F 33% 29.91 in 10.0 mi WSW 10.4 mph 18.4 mph N/A   Clear
1:55 AM 68.0 °F 37.4 °F 33% 29.90 in 10.0 mi SE 5.8 mph 19.6 mph N/A   Clear
2:15 AM 68.0 °F 37.4 °F 33% 29.91 in 10.0 mi SSE 10.4 mph 18.4 mph N/A   Clear
2:35 AM 68.0 °F 37.4 °F 33% 29.91 in 10.0 mi WSW 16.1 mph 27.6 mph N/A   Clear
2:55 AM 66.2 °F 37.4 °F 35% 29.90 in 10.0 mi West 19.6 mph 31.1 mph N/A   Clear
3:15 AM 66.2 °F 35.6 °F 32% 29.89 in 10.0 mi West 23.0 mph 33.4 mph N/A   Clear
3:35 AM 66.2 °F 35.6 °F 32% 29.88 in 10.0 mi West 25.3 mph 33.4 mph N/A   Clear
3:55 AM 64.4 °F 35.6 °F 34% 29.89 in 10.0 mi West 19.6 mph 33.4 mph N/A   Clear
4:15 AM 64.4 °F 33.8 °F 32% 29.89 in 10.0 mi West 23.0 mph 29.9 mph N/A   Clear
4:35 AM 64.4 °F 32.0 °F 30% 29.89 in 10.0 mi West 24.2 mph 31.1 mph N/A   Clear
4:55 AM 62.6 °F 33.8 °F 34% 29.88 in 10.0 mi West 24.2 mph 28.8 mph N/A   Clear
5:15 AM 62.6 °F 32.0 °F 32% 29.88 in 10.0 mi West 24.2 mph 29.9 mph N/A   Clear
5:35 AM 62.6 °F 35.6 °F 37% 29.89 in 10.0 mi West 24.2 mph 29.9 mph N/A   Clear
5:55 AM 62.6 °F 35.6 °F 37% 29.89 in 10.0 mi West 24.2 mph 32.2 mph N/A   Clear
6:15 AM 64.4 °F 32.0 °F 30% 29.90 in 10.0 mi WNW 10.4 mph 23.0 mph N/A   Clear
6:35 AM 64.4 °F 32.0 °F 30% 29.90 in 10.0 mi WNW 12.7 mph 23.0 mph N/A   Clear
6:55 AM 66.2 °F 32.0 °F 28% 29.90 in 10.0 mi West 20.7 mph 29.9 mph N/A   Clear
7:15 AM 66.2 °F 32.0 °F 28% 29.89 in 10.0 mi WNW 19.6 mph 28.8 mph N/A   Clear
7:35 AM 68.0 °F 32.0 °F 26% 29.89 in 10.0 mi NW 25.3 mph 36.8 mph N/A   Clear
7:55 AM 69.8 °F 32.0 °F 25% 29.90 in 10.0 mi WNW 18.4 mph 24.2 mph N/A   Clear
8:15 AM 69.8 °F 33.8 °F 27% 29.90 in 10.0 mi West 19.6 mph - N/A   Clear
8:35 AM 73.4 °F 28.4 °F 19% 29.91 in 10.0 mi NNW 10.4 mph - N/A   Clear
8:55 AM 71.6 °F 32.0 °F 23% 29.91 in 10.0 mi WNW 21.9 mph 31.1 mph N/A   Clear
9:15 AM 73.4 °F 33.8 °F 23% 29.90 in 10.0 mi WNW 26.5 mph 33.4 mph N/A   Clear
9:35 AM 73.4 °F 32.0 °F 22% 29.90 in 10.0 mi WNW 28.8 mph 33.4 mph N/A   Clear
9:55 AM 73.4 °F 33.8 °F 23% 29.90 in 10.0 mi West 24.2 mph 35.7 mph N/A   Clear
10:15 AM 75.2 °F 33.8 °F 22% 29.90 in 10.0 mi WNW 31.1 mph 36.8 mph N/A   Clear
10:35 AM 73.4 °F 33.8 °F 23% 29.91 in 10.0 mi West 23.0 mph 33.4 mph N/A   Clear
10:55 AM 75.2 °F 33.8 °F 22% 29.90 in 10.0 mi WNW 29.9 mph 36.8 mph N/A   Clear
11:15 AM 77.0 °F 33.8 °F 21% 29.90 in 10.0 mi West 29.9 mph 34.5 mph N/A   Clear
11:35 AM 77.0 °F 35.6 °F 22% 29.90 in 10.0 mi West 24.2 mph 32.2 mph N/A   Clear
11:55 AM 77.0 °F 32.0 °F 19% 29.91 in 10.0 mi West 26.5 mph 36.8 mph N/A   Clear
12:15 PM 77.0 °F 33.8 °F 21% 29.91 in 10.0 mi West 23.0 mph 40.3 mph N/A   Clear
12:35 PM 77.0 °F 35.6 °F 22% 29.89 in 10.0 mi West 32.2 mph 41.4 mph N/A   Clear
12:55 PM 77.0 °F 33.8 °F 21% 29.90 in 10.0 mi West 33.4 mph 42.6 mph N/A   Clear
1:15 PM 75.2 °F 35.6 °F 24% 29.90 in 10.0 mi WNW 24.2 mph 38.0 mph N/A   Clear
1:35 PM 75.2 °F 35.6 °F 24% 29.88 in 10.0 mi West 28.8 mph 40.3 mph N/A   Partly Cloudy
1:55 PM 77.0 °F 35.6 °F 22% 29.87 in 10.0 mi West 33.4 mph 44.9 mph N/A   Partly Cloudy
2:15 PM 75.2 °F 37.4 °F 25% 29.87 in 10.0 mi West 31.1 mph 44.9 mph N/A   Partly Cloudy
2:35 PM 73.4 °F 37.4 °F 27% 29.86 in 10.0 mi WNW 34.5 mph 43.7 mph N/A   Clear
2:55 PM 73.4 °F 37.4 °F 27% 29.86 in 10.0 mi West 35.7 mph 42.6 mph N/A   Clear
3:15 PM 71.6 °F 39.2 °F 31% 29.86 in 10.0 mi West 33.4 mph 44.9 mph N/A   Clear
3:35 PM 73.4 °F 37.4 °F 27% 29.85 in 10.0 mi West 33.4 mph 43.7 mph N/A   Clear
3:55 PM 73.4 °F 37.4 °F 27% 29.85 in 10.0 mi West 35.7 mph 44.9 mph N/A   Clear
4:15 PM 73.4 °F 37.4 °F 27% 29.86 in 10.0 mi West 27.6 mph 42.6 mph N/A   Clear
4:35 PM 73.4 °F 37.4 °F 27% 29.86 in 10.0 mi West 27.6 mph 42.6 mph N/A   Clear
4:55 PM 71.6 °F 39.2 °F 31% 29.87 in 10.0 mi West 26.5 mph 33.4 mph N/A   Clear
5:15 PM 68.0 °F 39.2 °F 35% 29.86 in 10.0 mi West 32.2 mph 40.3 mph N/A   Clear
5:35 PM 66.2 °F 39.2 °F 37% 29.87 in 10.0 mi West 25.3 mph 38.0 mph N/A   Clear
5:55 PM 66.2 °F 39.2 °F 37% 29.88 in 10.0 mi WSW 31.1 mph 41.4 mph N/A   Clear
6:15 PM 64.4 °F 39.2 °F 40% 29.87 in 10.0 mi West 23.0 mph 35.7 mph N/A   Clear
6:35 PM 64.4 °F 37.4 °F 37% 29.87 in 10.0 mi West 26.5 mph 35.7 mph N/A   Clear
6:55 PM 64.4 °F 35.6 °F 34% 29.86 in 10.0 mi West 27.6 mph 35.7 mph N/A   Clear
7:15 PM 64.4 °F 37.4 °F 37% 29.88 in 10.0 mi SW 18.4 mph 27.6 mph N/A   Clear
7:35 PM 62.6 °F 37.4 °F 39% 29.89 in 10.0 mi WSW 19.6 mph 26.5 mph N/A   Clear
7:55 PM 62.6 °F 37.4 °F 39% 29.89 in 10.0 mi SW 15.0 mph 31.1 mph N/A   Clear
8:15 PM 62.6 °F 33.8 °F 34% 29.89 in 10.0 mi West 23.0 mph 32.2 mph N/A   Clear
8:35 PM 62.6 °F 35.6 °F 37% 29.89 in 10.0 mi WSW 24.2 mph 29.9 mph N/A   Clear
8:55 PM 62.6 °F 35.6 °F 37% 29.89 in 10.0 mi WSW 20.7 mph 32.2 mph N/A   Clear
9:15 PM 60.8 °F 35.6 °F 39% 29.90 in 10.0 mi WSW 17.3 mph 29.9 mph N/A   Clear
9:35 PM 59.0 °F 39.2 °F 48% 29.90 in 10.0 mi SW 17.3 mph 26.5 mph N/A   Clear
9:55 PM 59.0 °F 39.2 °F 48% 29.90 in 10.0 mi SW 18.4 mph 27.6 mph N/A   Clear
10:15 PM 59.0 °F 39.2 °F 48% 29.91 in 10.0 mi SW 10.4 mph 20.7 mph N/A   Clear
10:35 PM 59.0 °F 39.2 °F 48% 29.90 in 10.0 mi WSW 18.4 mph 23.0 mph N/A   Clear
10:55 PM 59.0 °F 39.2 °F 48% 29.89 in 10.0 mi West 23.0 mph 33.4 mph N/A   Clear
11:15 PM 59.0 °F 39.2 °F 48% 29.88 in 10.0 mi West 26.5 mph 36.8 mph N/A   Clear
11:35 PM 59.0 °F 39.2 °F 48% 29.88 in 10.0 mi West 23.0 mph 32.2 mph N/A   Clear
11:55 PM 59.0 °F 41.0 °F 51% 29.89 in 10.0 mi West 20.7 mph 36.8 mph N/A   Clear